Location: Olsztyn
(53.7767°N, 20.4765°E)
Time: 13:44:26
(UTC+02:00)

Vanguard 1 Rocket - All Passes

Search period start: 19 July 2024 00:00
Search period end: 29 July 2024 00:00
Orbit: 650 x 4219 km, 34.3° (Epoch: 18 July)

Date Brightness Start Highest point End Pass type
(mag) Time Alt. Az. Time Alt. Az. Time Alt. Az.
19 Jul - 22:28:57 10° SSW 22:31:32 13° S 22:34:38 10° SSE visible
20 Jul - 21:19:32 10° S 21:20:11 10° S 21:20:51 10° SSE daylight
20 Jul - 23:42:25 10° SSW 23:44:01 11° S 23:45:46 10° S visible
21 Jul - 22:31:22 10° SSW 22:32:26 10° S 22:33:35 10° S visible
